Weather in Setka

Russia / Tula Oblast     54°40′07″N   38°10′29″E
temp.,
°C
wind,
m/s
gust,
m/s
humid.,
%
clouds,
%
prec.,
mm/h
press.,
hPa
HPBL,
m
11 april, sun
sun1100:00+3ssw36660 0.0 102781
03:00+2sw34700 0.0 102747
06:00+2wsw33730 0.0 102832
09:00+7sw23590 0.0 1030233
12:00+12sw12450 0.0 1030806
15:00+13w01400 0.0 10301185
18:00+12e23515 0.0 103066
21:00+8e23635 0.0 103220
12 april, mon
mon1200:00+6e33715 0.0 103336
03:00+5e3675100 0.0 103492
06:00+4ene41182100 0.0 1033226
09:00+7e61459100 0.0 1033530
12:00+11e81156100 0.0 1031726
15:00+12ese7968100 0.0 1030748
18:00+11ese5976100 0.0 1028558
21:00+8e4109295 0.0 1028201
13 april, tue
tue1300:00+7e4109452 0.0 1027179
03:00+7se488936 0.0 1026113
06:00+7sse49845 0.0 1026139
09:00+12sse51263100 0.0 1026331
12:00+17sse6943100 0.0 1025629
15:00+19sse6840100 0.0 10241264
18:00+16sse344814 0.0 102465
21:00+12sse345542 0.0 102445
14 april, wed
wed1400:00+10sse466684 0.0 102493
03:00+9sse4116910 0.0 1023173
06:00+8sse497427 0.0 1023122
09:00+13sse595687 0.0 1023328
12:00+17sse5740100 0.0 1022711
15:00+18sse673270 0.0 10201446
18:00+17se474381 0.0 1019171
21:00+12se465795 0.0 102086
15 april, thu
thu1500:00+10se3464100 0.0 101955
03:00+9se3468100 0.0 101851
06:00+8sse3471100 0.0 101854
09:00+12sse3561100 0.0 1017188
12:00+16se3345100 0.0 1017519
15:00+17sse1242100 0.0 1016897
18:00+16nne2251100 0.0 101632
21:00+11nne41070100 0.0 1017209